EWG5LE EDDH-LOWW

Flight info

Callsign EWG5LE
Flight time N/A
Altitude 37000
Route AMLUH2G/33 AMLUH M852 DENIX DCT ZUCKA DCT SODRO DCT ARMUT DCT LULAR DCT DEXIT DCT VENEN VENEN3W
Aircraft A319/M-SDE3FGHIRWY/LB1

Departure

Time N/A
Airport Hamburg Helmut Schmidt Airport (EDDH)

Arrival

Time 2026-04-24 19:12
Airport Vienna International Airport (LOWW)
Time Latitude Longitude Altitude Speed Heading
2026-04-24 18:54 48.50324 15.73912 17055 ft 376 kts 92°
2026-04-24 18:55 48.49864 15.81768 17057 ft 376 kts 92°
2026-04-24 18:55 48.49624 15.85695 17057 ft 376 kts 92°
2026-04-24 18:55 48.49383 15.89624 17057 ft 376 kts 92°
2026-04-24 18:56 48.49144 15.93538 16956 ft 373 kts 92°
2026-04-24 18:56 48.48906 15.97423 16454 ft 371 kts 92°
2026-04-24 18:56 48.48669 16.01284 15940 ft 369 kts 92°
2026-04-24 18:56 48.48392 16.05109 15440 ft 367 kts 96°
2026-04-24 18:57 48.47786 16.08849 14940 ft 368 kts 106°
2026-04-24 18:57 48.46813 16.12411 14447 ft 367 kts 115°
2026-04-24 18:57 48.45511 16.15715 13975 ft 366 kts 123°
2026-04-24 18:57 48.44067 16.18866 13431 ft 365 kts 123°
2026-04-24 18:58 48.42631 16.22005 12901 ft 363 kts 123°
2026-04-24 18:58 48.41205 16.25126 12393 ft 360 kts 123°
2026-04-24 18:58 48.39793 16.28218 11894 ft 357 kts 123°
2026-04-24 18:58 48.38392 16.31280 11414 ft 354 kts 123°
2026-04-24 18:59 48.36997 16.34327 10931 ft 352 kts 123°
2026-04-24 18:59 48.35612 16.37345 10462 ft 349 kts 123°
2026-04-24 18:59 48.34233 16.40342 9994 ft 347 kts 123°
2026-04-24 18:59 48.32863 16.43316 9478 ft 346 kts 123°
2026-04-24 19:00 48.31514 16.46239 8990 ft 343 kts 123°
2026-04-24 19:00 48.30097 16.49109 8508 ft 341 kts 130°
2026-04-24 19:00 48.28441 16.51627 8044 ft 338 kts 140°
2026-04-24 19:00 48.26588 16.53788 7551 ft 336 kts 144°
2026-04-24 19:01 48.24750 16.55852 7397 ft 323 kts 144°
2026-04-24 19:01 48.23004 16.57823 7293 ft 306 kts 144°
2026-04-24 19:01 48.21339 16.59705 7165 ft 292 kts 144°
2026-04-24 19:01 48.19816 16.61617 7038 ft 280 kts 137°
2026-04-24 19:02 48.18537 16.63735 7031 ft 272 kts 128°
2026-04-24 19:02 48.17457 16.66048 7041 ft 271 kts 121°
2026-04-24 19:02 48.16573 16.68542 7037 ft 271 kts 115°
2026-04-24 19:02 48.15741 16.71072 7038 ft 271 kts 115°
2026-04-24 19:03 48.14907 16.73595 7034 ft 270 kts 115°
2026-04-24 19:03 48.14071 16.76114 7031 ft 270 kts 115°
2026-04-24 19:03 48.13234 16.78627 7030 ft 270 kts 115°
2026-04-24 19:03 48.12400 16.81134 6858 ft 269 kts 116°
2026-04-24 19:04 48.11567 16.83636 6555 ft 268 kts 116°
2026-04-24 19:04 48.10735 16.86136 6263 ft 267 kts 116°
2026-04-24 19:04 48.09911 16.88616 5909 ft 265 kts 116°
2026-04-24 19:04 48.09096 16.91070 5502 ft 262 kts 115°
2026-04-24 19:05 48.08249 16.93468 5047 ft 261 kts 123°
2026-04-24 19:05 48.06900 16.95215 4639 ft 257 kts 156°
2026-04-24 19:05 48.05188 16.95721 4267 ft 249 kts 188°
2026-04-24 19:05 48.03604 16.94894 3864 ft 238 kts 219°
2026-04-24 19:06 48.02432 16.93204 3469 ft 232 kts 238°
2026-04-24 19:06 48.01676 16.91116 3093 ft 226 kts 256°
2026-04-24 19:06 48.01389 16.88862 3006 ft 220 kts 272°
2026-04-24 19:06 48.01530 16.86609 3025 ft 218 kts 287°
2026-04-24 19:07 48.02041 16.84571 3020 ft 203 kts 299°
2026-04-24 19:07 48.02655 16.82713 3024 ft 197 kts 298°
2026-04-24 19:07 48.03054 16.81502 3030 ft 196 kts 298°
2026-04-24 19:07 48.03853 16.79077 3050 ft 194 kts 299°
2026-04-24 19:08 48.04417 16.77359 3022 ft 175 kts 299°
2026-04-24 19:08 48.04939 16.75771 3024 ft 167 kts 299°
2026-04-24 19:08 48.05450 16.74219 2959 ft 166 kts 299°
2026-04-24 19:08 48.05956 16.72677 2799 ft 165 kts 299°
2026-04-24 19:09 48.06459 16.71147 2604 ft 164 kts 299°
2026-04-24 19:09 48.06950 16.69648 2395 ft 157 kts 299°
2026-04-24 19:09 48.07421 16.68212 2190 ft 150 kts 300°
2026-04-24 19:09 48.07860 16.66869 2005 ft 140 kts 299°
2026-04-24 19:10 48.08266 16.65630 1821 ft 129 kts 300°
2026-04-24 19:10 48.08655 16.64443 1640 ft 126 kts 299°
2026-04-24 19:10 48.09038 16.63284 1490 ft 124 kts 298°
2026-04-24 19:10 48.09424 16.62104 1306 ft 126 kts 299°
2026-04-24 19:11 48.09806 16.60925 1123 ft 126 kts 298°
2026-04-24 19:11 48.10187 16.59759 970 ft 124 kts 298°
2026-04-24 19:11 48.10567 16.58595 811 ft 125 kts 297°
2026-04-24 19:11 48.10946 16.57427 637 ft 124 kts 298°
2026-04-24 19:12 48.11281 16.56424 614 ft 74 kts 295°
2026-04-24 19:12 48.11422 16.55977 615 ft 43 kts 295°
2026-04-24 19:12 48.11557 16.55562 611 ft 42 kts 296°
2026-04-24 19:12 48.11722 16.55258 617 ft 31 kts 314°
2026-04-24 19:13 48.11794 16.55161 615 ft 16 kts 329°
2026-04-24 19:13 48.11871 16.55243 621 ft 16 kts 115°
2026-04-24 19:13 48.11849 16.55311 612 ft 3 kts 116°
2026-04-24 19:13 48.11847 16.55315 611 ft 0 kts 116°
2026-04-24 19:14 48.11843 16.55330 618 ft 3 kts 116°
2026-04-24 19:14 48.11831 16.55365 621 ft 5 kts 116°
2026-04-24 19:14 48.11813 16.55420 623 ft 8 kts 116°
2026-04-24 19:14 48.11780 16.55520 614 ft 14 kts 115°
2026-04-24 19:15 48.11727 16.55686 615 ft 21 kts 116°
2026-04-24 19:15 48.11758 16.55802 613 ft 15 kts 28°
2026-04-24 19:15 48.11847 16.55867 616 ft 12 kts 26°
2026-04-24 19:15 48.11902 16.55895 621 ft 6 kts 340°
2026-04-24 19:16 48.11935 16.55807 623 ft 1 kts 296°
2026-04-24 19:16 48.11938 16.55799 621 ft 0 kts 296°
2026-04-24 19:16 48.11938 16.55798 621 ft 0 kts 296°